Simultaneous Nadir Overpasses (SNOs) Predictions

Prediction of SNOs between AQUA and GOES-15 Satellite Orbit:

Table of predicted SNOs for the next 14.0 days since TLE Epoch: 1/17/2014
Index Date Time (AQUA) AQUA Lat,Lon GOES-15 Lat,Lon Distance(km) Time Diff (sec)
1 01/17/2014 22:35:24 0.15,-134.92 0.12,-135.10 20.55 80
2 01/19/2014 22:23:16 0.77,-131.97 0.12,-135.16 362.17 80
3 01/20/2014 10:44:32 0.28,-137.13 -0.13,-135.16 223.51 80
4 01/22/2014 10:32:23 -0.37,-134.19 -0.12,-135.21 117.55 80
5 01/22/2014 22:53:47 -0.77,-139.37 0.13,-135.23 471.39 80
6 01/24/2014 10:20:13 -0.97,-131.23 -0.12,-135.26 457.91 80
7 01/24/2014 22:41:38 -0.10,-136.43 0.12,-135.27 131.13 80
8 01/26/2014 22:29:28 0.53,-133.47 0.11,-135.30 208.44 80
9 01/27/2014 10:50:44 0.57,-138.63 -0.12,-135.31 377.43 80
10 01/29/2014 10:38:33 -0.03,-135.67 -0.11,-135.33 38.70 80




NCC Satellite Simultaneous Nadir Overpasses (SNOs) Prediction Service
